Regional Weather Roundup
Issued by NWS

Home | Current Version | Previous Version | Text Only | Print | Product List | Glossary Off
Versions: 1 2 3 4 5 6 7 8 9 10 11 12 13 14 15 16 17 18 19 20 21 22 23 24 25 26 27 28 29 30 31 32 33 34 35 36 37 38 39 40 41 42 43 44 45 46 47 48 49 50

000
ASUS43 KTOP 272008
RWRKS

WEATHER ROUNDUP FOR KANSAS
NATIONAL WEATHER SERVICE GOODLAND KS
300 PM CDT MON JUL 27 2015

NOTE:  "FAIR" INDICATES FEW OR NO CLOUDS BELOW 12,000 FEET WITH NO
SIGNIFICANT WEATHER AND/OR OBSTRUCTIONS TO VISIBILITY.

KSZ001>006-013>018-027>032-041>047-272100-
NORTHWEST KANSAS

CITY           SKY/WX    TMP DP  RH WIND       PRES   REMARKS
GOODLAND       SUNNY     89  69  51 S18G29    29.86F
HAYS           SUNNY     93  70  46 S25G33    29.84F HX  99
HILL CITY      SUNNY     94  71  47 S18       29.83F HX 101
RUSSELL        SUNNY     93  71  48 S18G28    29.84S HX 100
$$

KSZ061>065-074>080-084>089-272100-
SOUTHWEST KANSAS

CITY           SKY/WX    TMP DP  RH WIND       PRES   REMARKS
DODGE CITY     SUNNY     94  65  38 S26G36    29.87F HX  96
ELKHART          N/A     93  67  42 S16         N/A  HX  96
GARDEN CITY    SUNNY     92  69  47 S21G31    29.85F HX  97
GREAT BEND     SUNNY     97  70  41 S23       29.84F HX 103
LIBERAL        SUNNY     97  66  36 S21G31    29.86F HX 100
PRATT          SUNNY     93  61  33 S16G23    29.90F
$$

KSZ066>073-081>083-090>101-272100-
SOUTHEAST KANSAS

CITY           SKY/WX    TMP DP  RH WIND       PRES   REMARKS
CHANUTE        SUNNY     94  72  48 S10G20    29.92S HX 102
COFFEYVILLE    MOSUNNY   94  73  50 S14       29.90F HX 103
HUTCHINSON     PTSUNNY   98  67  36 S21G26    29.88F HX 102
MEDICINE LODGE   N/A     95  68  41 S14       29.86F HX  99
NEWTON         PTSUNNY   95  66  38 S20G26    29.92F HX  98
PARSONS        SUNNY     94  74  52 S8        29.92F HX 104
WICHITA INTL   PTSUNNY   97  66  36 S17       29.88F HX 100
WICHITA JABRA  MOSUNNY   96  67  38 S16G24    29.89F HX 100
WICHITA MCCONL MOSUNNY   93  65  39 S16       29.89F HX  95
WINFIELD       MOSUNNY   96  69  41 S10G20    29.90F HX 102
$$

KSZ007>012-019>026-033>040-048>060-102>105-272100-
NORTHEAST KANSAS

CITY           SKY/WX    TMP DP  RH WIND       PRES   REMARKS
CONCORDIA      PTSUNNY   87  71  58 S14       29.87F
EMPORIA        SUNNY     97  67  37 S20       29.89F HX 101
LAWRENCE       PTSUNNY   90  77  65 SE9       29.89F HX 103
MANHATTAN      MOSUNNY   90  77  65 E7        29.87F HX 103
MARYSVILLE     SUNNY     91  73  55 S15       29.87F HX 100
OLATHE IND     CLOUDY    93  74  53 VRB7      29.92F HX 103
OLATHE EXE     CLOUDY    91  76  61 S8        29.92F HX 103
SALINA         CLOUDY    94  72  48 S14       29.85F HX 102
TOPEKA BILLARD PTSUNNY   89  78  70 E7        29.87F HX 103
TOPEKA FORBES  MOSUNNY   95  75  52 S10       29.88F HX 107
$$


USA.gov is the U.S. government's official web portal to all federal, state and local government web resources and services.